Surface/Precipitation History
02/08/2018 18:22  to  2/9/2018 18:22
Change End Date:
Date/Time
(MST)
Sf
Temp Chem Water Layer Surface Precipitation
Sfc Pvt Sub Frz Factor Pct Dpth DpthThk IcePct Cond Salin FI Type Intens Accum Rate
02/09/2018 18:18 Ice Warning 22.5F - 31F 32F 30 0% - - 100% 0 mhos 7 - None None - -
02/09/2018 18:16 Ice Warning 22.3F - 31F 32F 30 0% - - 100% 0 mhos 7 - None None - -
02/09/2018 18:08 Ice Warning 22.3F - 31F 32F 30 0% - - 100% 0 mhos 7 - None None - -
02/09/2018 18:01 Ice Warning 22.5F - 31F 32F 30 0% - - 100% 0 mhos 7 - None None - -
02/09/2018 17:58 Ice Warning 22.5F - 31F 32F 30 0% - - 100% 0 mhos 6 - None None - -
02/09/2018 17:48 Ice Warning 23.2F - 31F 32F 30 0% - - 100% 0 mhos 7 - Yes - - -
02/09/2018 17:46 Ice Warning 23.2F - 31F 32F 30 0% - - 100% 0 mhos 6 - Yes - - -
02/09/2018 17:38 Ice Warning 23.4F - 31F 32F 30 0% - - 100% 0 mhos 6 - Yes - - -
02/09/2018 17:31 Ice Warning 23.5F - 31F 32F 30 0% - - 100% 0 mhos 6 - Yes - - -
02/09/2018 17:28 Ice Warning 23.5F - 31F 32F 30 0% - - 100% 0 mhos 6 - Yes - - -
02/09/2018 17:18 Ice Warning 23.7F - 31F 32F 30 0% - - 100% 0 mhos 6 - None None - -
02/09/2018 17:16 Ice Warning 24.3F - 31F 32F 30 0% - - 100% 0 mhos 6 - Yes - - -
02/09/2018 17:08 Ice Warning 24.3F - 31F 32F 25 0% - - 100% 0 mhos 6 - Yes - - -
02/09/2018 17:01 Ice Warning 24.8F - 31F 32F 25 0% - - 100% 0 mhos 6 - Yes - - -
02/09/2018 16:58 Ice Warning 25.0F - 31F 32F 25 0% - - 100% 0 mhos 6 - Yes - - -
Date/Time
(MST)
Sf
Temp Chem Water Layer Surface Precipitation
Sfc Pvt Sub Frz Factor Pct Dpth DpthThk IcePct Cond Salin FI Type Intens Accum Rate
02/09/2018 16:48 Ice Warning 25.3F - 31F 32F 25 0% - - 100% 0 mhos 5 - None None - -
02/09/2018 16:46 Ice Warning 25.3F - 31F 32F 25 0% - - 100% 0 mhos 5 - Yes - - -
02/09/2018 16:37 Ice Warning 25.7F - 31F 32F 30 0% - - 100% 0 mhos 5 - Yes - - -
02/09/2018 16:31 Ice Warning 26.2F - 31F 32F 25 0% - - 100% 0 mhos 5 - None None - -
02/09/2018 16:27 Ice Warning 26.1F - 31F 32F 25 0% - - 100% 0 mhos 5 - Yes - - -
02/09/2018 16:17 Ice Warning 27.3F - 31F 32F 25 0% - - 100% 0 mhos 5 - Yes - - -
02/09/2018 16:16 Ice Warning 27.3F - 31F 32F 25 0% - - 100% 0 mhos 5 - Yes - - -
02/09/2018 16:07 Ice Warning 27.5F - 31F 32F 25 0% - - 100% 0 mhos 5 - Yes - - -
02/09/2018 16:01 Ice Warning 27.5F - 31F 32F 25 0% - - 100% 0 mhos 5 - None None - -
02/09/2018 15:57 Ice Warning 27.7F - 31F 32F 25 0% - - 100% 0 mhos 5 - Yes - - -
02/09/2018 15:47 Ice Warning 27.9F - 31F 32F 25 0% - - 100% 0 mhos 4 - Yes - - -
02/09/2018 15:46 Ice Warning 28.0F - 31F 32F 25 0% - - 100% 0 mhos 4 - Yes - - -
02/09/2018 15:37 Ice Warning 28.2F - 31F 32F 20 0% - - 100% 0 mhos 4 - Yes - - -
02/09/2018 15:31 Ice Warning 28.4F - 31F 32F 20 0% - - 100% 0 mhos 4 - Yes - - -
02/09/2018 15:27 Ice Warning 28.9F - 31F 32F 35 0% - - 100% 0 mhos 4 - Yes - - -
Date/Time
(MST)
Sf
Temp Chem Water Layer Surface Precipitation
Sfc Pvt Sub Frz Factor Pct Dpth DpthThk IcePct Cond Salin FI Type Intens Accum Rate
02/09/2018 15:17 Ice Warning 29.5F - 31F 32F 50 0% - - 100% 0 mhos 5 - Yes - - -
02/09/2018 15:16 Ice Warning 29.5F - 31F 32F 45 0% - - 100% 0 mhos 5 - Yes - - -
02/09/2018 15:07 Ice Warning 29.7F - 31F 32F 55 0% - - 100% 0 mhos 5 - Yes - - -
02/09/2018 15:01 Ice Warning 30.0F - 31F 32F 75 0% - - 100% 0 mhos 5 - Yes - - -
02/09/2018 14:57 Ice Warning 30.2F - 31F 32F 95 0% - - 100% 0 mhos 5 - Yes - - -
02/09/2018 14:47 Ice Warning 30.2F - 31F 32F 80 0% - - 100% 0 mhos 6 - Yes - - -
02/09/2018 14:46 Ice Warning 30.2F - 31F 32F 75 0% - - 100% 0 mhos 6 - Yes - - -
02/09/2018 14:37 Ice Warning 29.7F - 31F 32F 80 0% - - 100% 0 mhos 5 - Yes - - -
02/09/2018 14:31 Ice Warning 29.3F - 31F 32F 70 0% - - 100% 0 mhos 5 - Yes - - -
02/09/2018 14:27 Ice Warning 28.4F - 31F 32F 55 0% - - 100% 0 mhos 5 - Yes - - -
02/09/2018 14:17 Ice Warning 28.4F - 31F 32F 55 0% - - 100% 0 mhos 5 - Yes - - -
02/09/2018 14:16 Ice Warning 28.4F - 31F 32F 55 0% - - 100% 0 mhos 5 - Yes - - -
02/09/2018 14:07 Ice Warning 28.4F - 31F 32F 45 0% - - 100% 0 mhos 5 - Yes - - -
02/09/2018 14:01 Ice Warning 29.1F - 31F 32F 70 0% - - 100% 0 mhos 5 - Yes - - -
02/09/2018 13:57 Ice Warning 28.4F - 31F 32F 65 0% - - 100% 0 mhos 5 - Yes - - -
Date/Time
(MST)
Sf
Temp Chem Water Layer Surface Precipitation
Sfc Pvt Sub Frz Factor Pct Dpth DpthThk IcePct Cond Salin FI Type Intens Accum Rate
02/09/2018 13:47 Ice Warning 28.2F - 31F 32F 45 0% - - 100% 0 mhos 5 - Yes - - -
02/09/2018 13:46 Ice Warning 28.0F - 31F 32F 45 0% - - 100% 0 mhos 5 - Yes - - -
02/09/2018 13:37 Ice Warning 27.9F - 31F 32F 65 0% - - 100% 0 mhos 5 - Yes - - -
02/09/2018 13:31 Ice Warning 27.3F - 31F 32F 55 0% - - 100% 0 mhos 5 - Yes - - -
02/09/2018 13:26 Ice Warning 27.1F - 31F 32F 80 0% - - 100% 0 mhos 5 - Yes - - -
02/09/2018 13:16 Ice Warning 27.5F - 31F 32F 60 0% - - 100% 0 mhos 5 - Yes - - -
02/09/2018 13:16 Ice Warning 27.1F - 31F 32F 60 0% - - 100% 0 mhos 5 - Yes - - -
02/09/2018 13:06 Ice Warning 26.2F - 31F 32F 50 0% - - 100% 0 mhos 5 - Yes - - -
02/09/2018 13:01 Ice Warning 25.7F - 31F 32F 45 0% - - 100% 0 mhos 5 - Yes - - -
02/09/2018 12:56 Ice Warning 25.7F - 31F 32F 50 0% - - 100% 0 mhos 5 - Yes - - -
02/09/2018 12:46 Ice Warning 26.6F - 31F 32F 60 0% - - 100% 0 mhos 5 - Yes - - -
02/09/2018 12:46 Ice Warning 26.6F - 31F 32F 60 0% - - 100% 0 mhos 5 - Yes - - -
02/09/2018 12:36 Ice Warning 26.1F - 31F 32F 55 0% - - 100% 0 mhos 5 - Yes - - -
02/09/2018 12:31 Ice Warning 25.3F - 31F 32F 50 0% - - 100% 0 mhos 4 - Yes - - -
02/09/2018 12:26 Ice Warning 25.5F - 31F 32F 40 0% - - 100% 0 mhos 4 - None None - -
Date/Time
(MST)
Sf
Temp Chem Water Layer Surface Precipitation
Sfc Pvt Sub Frz Factor Pct Dpth DpthThk IcePct Cond Salin FI Type Intens Accum Rate
02/09/2018 12:16 Ice Warning 25.7F - 31F 32F 40 0% - - 100% 0 mhos 4 - None None - -
02/09/2018 12:16 Ice Warning 25.7F - 31F 32F 40 0% - - 100% 0 mhos 4 - None None - -
02/09/2018 12:06 Ice Warning 25.7F - 31F 32F 30 0% - - 100% 0 mhos 4 - None None - -
02/09/2018 12:01 Ice Warning 25.3F - 31F 32F 25 0% - - 100% 0 mhos 3 - None None - -
02/09/2018 11:56 Ice Warning 25.7F - 31F 32F 25 0% - - 100% 0 mhos 3 - None None - -
02/09/2018 11:46 Ice Warning 24.6F - 31F 32F 15 0% - - 100% 0 mhos 2 - None None - -
02/09/2018 11:46 Ice Warning 24.6F - 31F 32F 15 0% - - 100% 0 mhos 2 - None None - -
02/09/2018 11:36 Ice Warning 24.1F - 31F 32F 15 0% - - 100% 0 mhos 2 - None None - -
02/09/2018 11:31 Ice Warning 24.1F - 31F 32F 10 0% - - 100% 0 mhos 2 - None None - -
02/09/2018 11:26 Ice Warning 23.7F - 31F 32F 10 0% - - 100% 0 mhos 2 - Yes - - -
02/09/2018 11:16 Ice Warning 23.5F - 31F 32F 5 0% - - 100% 0 mhos 2 - Yes - - -
02/09/2018 11:16 Ice Warning 23.5F - 31F 32F 5 0% - - 100% 0 mhos 2 - Yes - - -
02/09/2018 11:06 Ice Warning 23.4F - 31F 32F 5 0% - - 100% 0 mhos 1 - Yes - - -
02/09/2018 11:01 Ice Warning 23.2F - 31F 32F 5 0% - - 100% 0 mhos 1 - Yes - - -
02/09/2018 10:56 Ice Warning 22.6F - 31F 32F 5 0% - - 100% 0 mhos 1 - Yes - - -
Date/Time
(MST)
Sf
Temp Chem Water Layer Surface Precipitation
Sfc Pvt Sub Frz Factor Pct Dpth DpthThk IcePct Cond Salin FI Type Intens Accum Rate
02/09/2018 10:46 Ice Warning 22.5F - 31F 32F 5 0% - - 100% 0 mhos 1 - Yes - - -
02/09/2018 10:46 Ice Warning 22.5F - 31F 32F 5 0% - - 100% 0 mhos 1 - Yes - - -
02/09/2018 10:36 Ice Warning 22.1F - 31F 32F 5 0% - - 100% 0 mhos 1 - Yes - - -
02/09/2018 10:31 Ice Warning 22.1F - 31F 32F 5 0% - - 100% 0 mhos 1 - Yes - - -
02/09/2018 10:26 Ice Warning 22.1F - 31F 32F 5 0% - - 100% 0 mhos 1 - Yes - - -
02/09/2018 10:16 Ice Warning 22.3F - 31F 32F 5 0% - - 100% 0 mhos 1 - Yes - - -
02/09/2018 10:16 Ice Warning 22.3F - 31F 32F 5 0% - - 100% 0 mhos 1 - Yes - - -
02/09/2018 10:05 Ice Warning 22.6F - 31F 32F 5 0% - - 100% 0 mhos 1 - Yes - - -
02/09/2018 10:01 Ice Warning 22.5F - 32F 32F 5 0% - - 100% 0 mhos 1 - Yes - - -
02/09/2018 09:55 Ice Warning 22.5F - 31F 32F 5 0% - - 100% 0 mhos 1 - Yes - - -
02/09/2018 09:46 Ice Warning 22.5F - 31F 32F 5 0% - - 100% 0 mhos 1 - Yes - - -
02/09/2018 09:45 Ice Warning 22.5F - 32F 32F 5 0% - - 100% 0 mhos 1 - Yes - - -
02/09/2018 09:35 Ice Warning 22.5F - 32F 32F 5 0% - - 100% 0 mhos 1 - Yes - - -
02/09/2018 09:31 Ice Warning 22.5F - 32F 32F 5 0% - - 100% 0 mhos 1 - None None - -
02/09/2018 09:25 Ice Warning 22.3F - 32F 32F 5 0% - - 100% 0 mhos 1 - Yes - - -
Date/Time
(MST)
Sf
Temp Chem Water Layer Surface Precipitation
Sfc Pvt Sub Frz Factor Pct Dpth DpthThk IcePct Cond Salin FI Type Intens Accum Rate
02/09/2018 09:16 Ice Warning 22.5F - 32F 32F 5 0% - - 100% 0 mhos 1 - Yes - - -
02/09/2018 09:15 Ice Warning 22.5F - 32F 32F 5 0% - - 100% 0 mhos 1 - Yes - - -
02/09/2018 09:05 Ice Warning 22.5F - 32F 32F 5 0% - - 100% 0 mhos 1 - Yes - - -
02/09/2018 09:01 Ice Warning 22.8F - 32F 32F 5 0% - - 100% 0 mhos 1 - Yes - - -
02/09/2018 08:55 Ice Warning 22.8F - 32F 32F 5 0% - - 100% 0 mhos 1 - Yes - - -
02/09/2018 08:46 Ice Warning 23.5F - 32F 32F 5 0% - - 100% 0 mhos 1 - Yes - - -
02/09/2018 08:45 Ice Warning 23.5F - 32F 32F 5 0% - - 100% 0 mhos 1 - Yes - - -
02/09/2018 08:35 Ice Warning 23.5F - 32F 32F 5 0% - - 100% 0 mhos 1 - Yes - - -
02/09/2018 08:31 Ice Warning 23.5F - 32F 32F 5 0% - - 100% 0 mhos 1 - Yes - - -
02/09/2018 08:25 Ice Warning 23.5F - 32F 32F 5 0% - - 100% 0 mhos 1 - Yes - - -
02/09/2018 08:16 Ice Warning 23.0F - 32F 32F 5 0% - - 100% 0 mhos 1 - Yes - - -
02/09/2018 08:15 Ice Warning 23.0F - 32F 32F 5 0% - - 100% 0 mhos 1 - Yes - - -
02/09/2018 08:05 Ice Warning 22.5F - 32F 32F 5 0% - - 100% 0 mhos 1 - Yes - - -
02/09/2018 08:01 Ice Warning 22.5F - 32F 32F 5 0% - - 100% 0 mhos 1 - Yes - - -
02/09/2018 07:55 Ice Warning 22.5F - 32F 32F 5 0% - - 100% 0 mhos 1 - Yes - - -
Date/Time
(MST)
Sf
Temp Chem Water Layer Surface Precipitation
Sfc Pvt Sub Frz Factor Pct Dpth DpthThk IcePct Cond Salin FI Type Intens Accum Rate
02/09/2018 07:46 Ice Warning 22.5F - 32F 32F 5 0% - - 100% 0 mhos 1 - Yes - - -
02/09/2018 07:45 Ice Warning 22.5F - 32F 32F 5 0% - - 100% 0 mhos 1 - Yes - - -
02/09/2018 07:35 Ice Warning 22.1F - 32F 32F 5 0% - - 100% 0 mhos 1 - Yes - - -
02/09/2018 07:31 Ice Warning 21.9F - 32F 32F 5 0% - - 100% 0 mhos 1 - Yes - - -
02/09/2018 07:25 Ice Warning 21.7F - 32F 32F 5 0% - - 100% 0 mhos 1 - Yes - - -
02/09/2018 07:16 Ice Warning 22.1F - 32F 32F 5 0% - - 100% 0 mhos 1 - Yes - - -
02/09/2018 07:15 Ice Warning 22.1F - 32F 32F 5 0% - - 100% 0 mhos 1 - Yes - - -
02/09/2018 07:05 Ice Warning 22.5F - 32F 32F 5 0% - - 100% 0 mhos 1 - Yes - - -
02/09/2018 07:01 Ice Warning 22.5F - 32F 32F 5 0% - - 100% 0 mhos 1 - Yes - - -
02/09/2018 06:55 Ice Warning 22.8F - 32F 32F 5 0% - - 100% 0 mhos 1 - Yes - - -
02/09/2018 06:46 Ice Warning 22.6F - 32F 32F 5 0% - - 100% 0 mhos 1 - Yes - - -
02/09/2018 06:45 Ice Warning 22.6F - 32F 32F 5 0% - - 100% 0 mhos 1 - Yes - - -
02/09/2018 06:35 Ice Warning 23.0F - 32F 32F 5 0% - - 100% 0 mhos 1 - Yes - - -
02/09/2018 06:31 Ice Warning 22.8F - 32F 32F 5 0% - - 100% 0 mhos 1 - Yes - - -
02/09/2018 06:24 Ice Warning 23.2F - 32F 32F 5 0% - - 100% 0 mhos 1 - Yes - - -
Date/Time
(MST)
Sf
Temp Chem Water Layer Surface Precipitation
Sfc Pvt Sub Frz Factor Pct Dpth DpthThk IcePct Cond Salin FI Type Intens Accum Rate
02/09/2018 06:16 Ice Warning 23.5F - 32F 32F 5 0% - - 100% 0 mhos 1 - Yes - - -
02/09/2018 06:14 Ice Warning 23.5F - 32F 32F 5 0% - - 100% 0 mhos 1 - Yes - - -
02/09/2018 06:04 Ice Warning 24.6F - 32F 32F 5 0% - - 100% 0 mhos 1 - None None - -
02/09/2018 06:01 Ice Warning 25.2F - 32F 32F 5 0% - - 100% 0 mhos 1 - None None - -
02/09/2018 05:54 Ice Warning 25.2F - 32F 32F 5 0% - - 100% 0 mhos 1 - None None - -
02/09/2018 05:46 Ice Warning 25.2F - 32F 32F 5 0% - - 100% 0 mhos 1 - None None - -
02/09/2018 05:44 Ice Warning 25.2F - 32F 32F 5 0% - - 100% 0 mhos 1 - None None - -
02/09/2018 05:34 Ice Warning 25.2F - 32F 32F 5 0% - - 100% 0 mhos 1 - Yes - - -
02/09/2018 05:31 Ice Warning 25.3F - 32F 32F 5 0% - - 100% 0 mhos 1 - Yes - - -
02/09/2018 05:24 Ice Warning 25.5F - 32F 32F 5 0% - - 100% 0 mhos 1 - Yes - - -
02/09/2018 05:16 Ice Warning 25.7F - 32F 32F 5 0% - - 100% 0 mhos 1 - Yes - - -
02/09/2018 05:14 Ice Warning 25.9F - 32F 32F 5 0% - - 100% 0 mhos 2 - Yes - - -
02/09/2018 05:04 Ice Warning 26.4F - 32F 32F 5 0% - - 100% 0 mhos 2 - Yes - - -
02/09/2018 05:01 Ice Warning 26.8F - 32F 32F 5 0% - - 100% 0 mhos 2 - Yes - - -
02/09/2018 04:54 Ice Warning 27.0F - 32F 32F 5 0% - - 100% 0 mhos 2 - Yes - - -
Date/Time
(MST)
Sf
Temp Chem Water Layer Surface Precipitation
Sfc Pvt Sub Frz Factor Pct Dpth DpthThk IcePct Cond Salin FI Type Intens Accum Rate
02/09/2018 04:46 Ice Warning 27.0F - 32F 32F 5 0% - - 100% 0 mhos 2 - Yes - - -
02/09/2018 04:44 Ice Warning 27.0F - 32F 32F 5 0% - - 100% 0 mhos 2 - Yes - - -
02/09/2018 04:34 Ice Warning 27.0F - 32F 32F 5 0% - - 100% 0 mhos 2 - Yes - - -
02/09/2018 04:31 Ice Warning 27.0F - 32F 32F 5 0% - - 100% 0 mhos 2 - Yes - - -
02/09/2018 04:24 Ice Warning 27.0F - 32F 32F 5 0% - - 100% 0 mhos 2 - Yes - - -
02/09/2018 04:16 Ice Warning 27.0F - 32F 32F 5 0% - - 100% 0 mhos 2 - Yes - - -
02/09/2018 04:14 Ice Warning 27.0F - 32F 32F 5 0% - - 100% 0 mhos 2 - Yes - - -
02/09/2018 04:04 Ice Warning 27.0F - 32F 32F 5 0% - - 100% 0 mhos 2 - Yes - - -
02/09/2018 04:01 Ice Warning 27.0F - 32F 32F 5 0% - - 100% 0 mhos 2 - Yes - - -
02/09/2018 03:54 Ice Warning 27.3F - 32F 32F 5 0% - - 100% 0 mhos 2 - Yes - - -
02/09/2018 03:46 Ice Warning 28.0F - 32F 32F 5 0% - - 100% 0 mhos 2 - Yes - - -
02/09/2018 03:44 Ice Warning 28.0F - 32F 32F 5 0% - - 100% 0 mhos 2 - Yes - - -
02/09/2018 03:34 Ice Warning 29.1F - 32F 32F 5 0% - - 100% 0 mhos 2 - Yes - - -
02/09/2018 03:31 Ice Warning 28.9F - 32F 32F 5 0% - - 100% 0 mhos 2 - Yes - - -
02/09/2018 03:24 Ice Warning 28.9F - 33F 32F 5 0% - - 100% 0 mhos 2 - Yes - - -
Date/Time
(MST)
Sf
Temp Chem Water Layer Surface Precipitation
Sfc Pvt Sub Frz Factor Pct Dpth DpthThk IcePct Cond Salin FI Type Intens Accum Rate
02/09/2018 03:16 Ice Warning 28.9F - 33F 32F 5 0% - - 100% 0 mhos 2 - Yes - - -
02/09/2018 03:14 Ice Warning 28.8F - 33F 32F 5 0% - - 100% 0 mhos 2 - Yes - - -
02/09/2018 03:03 Ice Warning 28.8F - 33F 32F 5 0% - - 100% 0 mhos 2 - Yes - - -
02/09/2018 03:01 Ice Warning 28.8F - 33F 32F 5 0% - - 100% 0 mhos 2 - Yes - - -
02/09/2018 02:53 Ice Warning 28.6F - 33F 32F 5 0% - - 100% 0 mhos 2 - Yes - - -
02/09/2018 02:46 Ice Warning 28.6F - 33F 32F 5 0% - - 100% 0 mhos 2 - Yes - - -
02/09/2018 02:43 Ice Warning 28.4F - 33F 32F 5 0% - - 100% 0 mhos 2 - Yes - - -
02/09/2018 02:33 Ice Warning 28.2F - 33F 32F 5 0% - - 100% 0 mhos 2 - Yes - - -
02/09/2018 02:31 Ice Warning 28.2F - 33F 32F 5 0% - - 100% 0 mhos 2 - Yes - - -
02/09/2018 02:23 Ice Warning 28.0F - 33F 32F 5 0% - - 100% 0 mhos 2 - Yes - - -
02/09/2018 02:16 Ice Warning 28.0F - 33F 32F 5 0% - - 100% 0 mhos 2 - Yes - - -
02/09/2018 02:13 Ice Warning 28.0F - 33F 32F 5 0% - - 100% 0 mhos 2 - Yes - - -
02/09/2018 02:03 Ice Warning 27.7F - 33F 32F 5 0% - - 100% 0 mhos 2 - Yes - - -
02/09/2018 02:01 Ice Warning 27.5F - 33F 32F 5 0% - - 100% 0 mhos 2 - Yes - - -
02/09/2018 01:53 Ice Warning 27.3F - 33F 32F 5 0% - - 100% 0 mhos 2 - Yes - - -
Date/Time
(MST)
Sf
Temp Chem Water Layer Surface Precipitation
Sfc Pvt Sub Frz Factor Pct Dpth DpthThk IcePct Cond Salin FI Type Intens Accum Rate
02/09/2018 01:46 Ice Warning 27.0F - 33F 32F 5 0% - - 100% 0 mhos 2 - Yes - - -
02/09/2018 01:43 Ice Warning 27.0F - 33F 32F 5 0% - - 100% 0 mhos 2 - Yes - - -
02/09/2018 01:33 Ice Warning 26.6F - 33F 32F 5 0% - - 100% 0 mhos 2 - Yes - - -
02/09/2018 01:31 Ice Warning 26.6F - 33F 32F 5 0% - - 100% 0 mhos 2 - Yes - - -
02/09/2018 01:23 Ice Warning 26.6F - 33F 32F 5 0% - - 100% 0 mhos 2 - Yes - - -
02/09/2018 01:16 Ice Warning 27.0F - 33F 32F 5 0% - - 100% 0 mhos 2 - Yes - - -
02/09/2018 01:13 Ice Warning 27.5F - 33F 32F 5 0% - - 100% 0 mhos 2 - Yes - - -
02/09/2018 01:03 Ice Warning 27.1F - 33F 32F 5 0% - - 100% 0 mhos 2 - Yes - - -
02/09/2018 01:01 Ice Warning 27.0F - 33F 32F 5 0% - - 100% 0 mhos 2 - Yes - - -
02/09/2018 00:53 Ice Warning 26.6F - 33F 32F 5 0% - - 100% 0 mhos 2 - Yes - - -
02/09/2018 00:46 Dry 26.1F - 33F - - - - - - 0 mhos 2 - Yes - - -
02/09/2018 00:43 Dry 26.1F - 33F - - - - - - 0 mhos 2 - Yes - - -
02/09/2018 00:32 Dry 25.7F - 33F - - - - - - 0 mhos 2 - Yes - - -
02/09/2018 00:31 Dry 25.7F - 33F - - - - - - 0 mhos 2 - Yes - - -
02/09/2018 00:22 Dry 25.7F - 33F - - - - - - 0 mhos 2 - Yes - - -
Date/Time
(MST)
Sf
Temp Chem Water Layer Surface Precipitation
Sfc Pvt Sub Frz Factor Pct Dpth DpthThk IcePct Cond Salin FI Type Intens Accum Rate
02/09/2018 00:16 Dry 25.2F - 33F - - - - - - 0 mhos 2 - Yes - - -
02/09/2018 00:12 Dry 24.6F - 33F - - - - - - 0 mhos 2 - Yes - - -
02/09/2018 00:02 Dry 23.9F - 33F - - - - - - 0 mhos 1 - Yes - - -
02/09/2018 00:01 Dry 23.9F - 33F - - - - - - 0 mhos 1 - Yes - - -
02/08/2018 23:52 Dry 23.5F - 33F - - - - - - 0 mhos 1 - Yes - - -
02/08/2018 23:46 Dry 23.5F - 33F - - - - - - 0 mhos 1 - Yes - - -
02/08/2018 23:42 Dry 23.5F - 33F - - - - - - 0 mhos 1 - Yes - - -
02/08/2018 23:32 Dry 23.5F - 33F - - - - - - 0 mhos 1 - Yes - - -
02/08/2018 23:31 Dry 23.5F - 33F - - - - - - 0 mhos 1 - Yes - - -
02/08/2018 23:22 Dry 24.3F - 33F - - - - - - 0 mhos 1 - Yes - - -
02/08/2018 23:16 Dry 24.6F - 33F - - - - - - 0 mhos 1 - Yes - - -
02/08/2018 23:12 Dry 24.6F - 33F - - - - - - 0 mhos 1 - Yes - - -
02/08/2018 23:02 Dry 24.6F - 34F - - - - - - 0 mhos 1 - None None - -
02/08/2018 23:01 Dry 24.6F - 34F - - - - - - 0 mhos 1 - None None - -
02/08/2018 22:52 Dry 25.2F - 34F - - - - - - 0 mhos 2 - None None - -
Date/Time
(MST)
Sf
Temp Chem Water Layer Surface Precipitation
Sfc Pvt Sub Frz Factor Pct Dpth DpthThk IcePct Cond Salin FI Type Intens Accum Rate
02/08/2018 22:46 Dry 25.3F - 34F - - - - - - 0 mhos 2 - Yes - - -
02/08/2018 22:42 Dry 25.7F - 34F - - - - - - 0 mhos 2 - None None - -
02/08/2018 22:32 Dry 25.3F - 34F - - - - - - 0 mhos 2 - None None - -
02/08/2018 22:31 Dry 25.3F - 34F - - - - - - 0 mhos 2 - None None - -
02/08/2018 22:22 Dry 25.7F - 34F - - - - - - 0 mhos 2 - None None - -
02/08/2018 22:16 Dry 25.5F - 34F - - - - - - 0 mhos 2 - None None - -
02/08/2018 22:12 Dry 25.3F - 34F - - - - - - 0 mhos 2 - None None - -
02/08/2018 22:02 Dry 25.2F - 34F - - - - - - 0 mhos 2 - None None - -
02/08/2018 22:01 Dry 25.2F - 34F - - - - - - 0 mhos 2 - None None - -
02/08/2018 21:52 Dry 25.5F - 34F - - - - - - 0 mhos 2 - None None - -
02/08/2018 21:46 Dry 25.2F - 34F - - - - - - 0 mhos 2 - None None - -
02/08/2018 21:42 Dry 25.5F - 34F - - - - - - 0 mhos 2 - None None - -
02/08/2018 21:32 Dry 25.2F - 34F - - - - - - 0 mhos 2 - None None - -
02/08/2018 21:31 Dry 25.3F - 34F - - - - - - 0 mhos 2 - None None - -
02/08/2018 21:21 Dry 25.0F - 34F - - - - - - 0 mhos 2 - None None - -
Date/Time
(MST)
Sf
Temp Chem Water Layer Surface Precipitation
Sfc Pvt Sub Frz Factor Pct Dpth DpthThk IcePct Cond Salin FI Type Intens Accum Rate
02/08/2018 21:16 Dry 25.3F - 34F - - - - - - 0 mhos 2 - None None - -
02/08/2018 21:11 Dry 25.5F - 34F - - - - - - 0 mhos 2 - None None - -
02/08/2018 21:01 Dry 25.0F - 34F - - - - - - 0 mhos 2 - None None - -
02/08/2018 21:01 Dry 25.0F - 34F - - - - - - 0 mhos 2 - None None - -
02/08/2018 20:51 Dry 25.3F - 34F - - - - - - 0 mhos 2 - None None - -
02/08/2018 20:46 Dry 25.7F - 34F - - - - - - 0 mhos 2 - None None - -
02/08/2018 20:41 Dry 25.9F - 34F - - - - - - 0 mhos 2 - None None - -
02/08/2018 20:31 Dry 26.2F - 34F - - - - - - 0 mhos 2 - None None - -
02/08/2018 20:31 Dry 26.4F - 34F - - - - - - 0 mhos 2 - None None - -
02/08/2018 20:21 Ice Warning 27.0F - 34F 32F 5 0% - - 100% 0 mhos 2 - None None - -
02/08/2018 20:16 Ice Warning 26.8F - 34F 32F 5 0% - - 100% 0 mhos 2 - None None - -
02/08/2018 20:11 Ice Warning 27.0F - 34F 32F 5 0% - - 100% 0 mhos 2 - None None - -
02/08/2018 20:01 Ice Warning 28.0F - 34F 32F 5 0% - - 100% 0 mhos 3 - None None - -
02/08/2018 20:01 Ice Warning 28.0F - 34F 32F 5 0% - - 100% 0 mhos 3 - None None - -
02/08/2018 19:51 Ice Warning 28.8F - 34F 32F 5 0% - - 100% 0 mhos 2 - None None - -
Date/Time
(MST)
Sf
Temp Chem Water Layer Surface Precipitation
Sfc Pvt Sub Frz Factor Pct Dpth DpthThk IcePct Cond Salin FI Type Intens Accum Rate
02/08/2018 19:46 Ice Warning 29.1F - 34F 32F 5 0% - - 100% 0 mhos 6 - None None - -
02/08/2018 19:41 Ice Warning 29.3F - 34F 32F 5 0% - - 98% 0 mhos 51 - None None - -
02/08/2018 19:31 Ice Warning 30.2F - 34F 32F 5 0% - - 98% 0 mhos 43 - None None - -
02/08/2018 19:31 Ice Warning 30.2F - 34F 32F 5 0% - - 97% 0 mhos 42 - None None - -
02/08/2018 19:21 Ice Warning 31.3F - 34F 32F 5 0% - - 95% 0 mhos 37 - None None - -
02/08/2018 19:16 Ice Warning 31.6F - 34F 32F 5 0% - - 88% 0 mhos 36 - None None - -
02/08/2018 19:11 Wet 32.2F - 34F 32F 5 0% 0.00 in - 0% 0 mhos 37 - None None - -
02/08/2018 19:01 Wet 32.2F - 34F 32F 5 0% 0.00 in - 0% 0 mhos 38 - None None - -
02/08/2018 19:01 Wet 32.2F - 34F 32F 5 0% 0.00 in - 0% 0 mhos 38 - None None - -
02/08/2018 18:51 Wet 32.5F - 34F 32F 5 0% 0.00 in - 0% 0 mhos 39 - None None - -
02/08/2018 18:46 Wet 33.4F - 34F 32F 5 0% 0.00 in - 0% 0 mhos 37 - None None - -
02/08/2018 18:41 Wet 33.6F - 34F 32F 5 0% 0.00 in - 0% 0 mhos 35 - None None - -
02/08/2018 18:31 Wet 34.0F - 34F 32F 5 0% 0.00 in - 0% 0 mhos 31 - None None - -
02/08/2018 18:31 Wet 34.0F - 34F 32F 5 0% 0.00 in - 0% 0 mhos 31 - None None - -
Change End Date:

Copyright © 1998-2015 Vaisala, Inc.
All Rights Reserved
Send comments about the data to:
SCAN Web ® is a registered trademark of Vaisala, Inc.
SCAN Web Version 6.0